This is the latest recevied weather packets stored in our database for station/object KI4HRG. If no packets are shown the sender has not sent any weather packets the latest 10 day(s).
| Time | Temp. | Humidity | Pressure | Rain* | Wind** | Luminosity | Snow |
|---|---|---|---|---|---|---|---|
| 1788134112 | 87° F | 64% | 763.3 mmHg | 0 in | - | 10 W/m² | - |
| 1788133808 | 88° F | 63% | 763.3 mmHg | 0 in | - | 11 W/m² | - |
| 1788133503 | 88° F | 63% | 763.3 mmHg | 0 in | - | 15 W/m² | - |
| 1788133198 | 88° F | 63% | 763.3 mmHg | 0 in | - | 19 W/m² | - |
| 1788132893 | 88° F | 62% | 763.3 mmHg | 0 in | - | 21 W/m² | - |
| 1788132589 | 89° F | 62% | 763.3 mmHg | 0 in | - | 23 W/m² | - |
| 1788132284 | 89° F | 61% | 763.3 mmHg | 0 in | - | 26 W/m² | - |
| 1788131981 | 89° F | 61% | 763.3 mmHg | 0 in | - | 27 W/m² | - |
| 1788131676 | 89° F | 62% | 763.3 mmHg | 0 in | - | 30 W/m² | - |
| 1788131375 | 89° F | 61% | 763.1 mmHg | 0 in | - | 33 W/m² | - |
| 1788131070 | 89° F | 61% | 763.2 mmHg | 0 in | - | 34 W/m² | - |
| 1788130769 | 89° F | 61% | 763.1 mmHg | 0 in | - | 37 W/m² | - |
| 1788130465 | 89° F | 62% | 763.3 mmHg | 0 in | - | 36 W/m² | - |
| 1788130160 | 89° F | 62% | 763.1 mmHg | 0 in | - | 40 W/m² | - |
| 1788129859 | 89° F | 61% | 762.9 mmHg | 0 in | - | 46 W/m² | - |
| 1788129556 | 90° F | 61% | 763.1 mmHg | 0 in | - | 44 W/m² | - |
| 1788129252 | 90° F | 61% | 763 mmHg | 0 in | - | 47 W/m² | - |
| 1788128951 | 90° F | 61% | 763.1 mmHg | 0 in | - | 49 W/m² | - |
| 1788128647 | 91° F | 59% | 763.1 mmHg | 0 in | - | 54 W/m² | - |
| 1788128342 | 91° F | 60% | 763 mmHg | 0 in | - | 58 W/m² | - |
| 1788128038 | 91° F | 60% | 763 mmHg | 0 in | - | 59 W/m² | - |
| 1788127733 | 90° F | 59% | 763 mmHg | 0 in | - | 49 W/m² | - |
| 1788127433 | 90° F | 60% | 763 mmHg | 0 in | - | 48 W/m² | - |
| 1788127130 | 91° F | 59% | 763 mmHg | 0 in | - | 46 W/m² | - |
| 1788126825 | 91° F | 57% | 763 mmHg | 0 in | - | 52 W/m² | - |
* Rain latest hour (hover to see other rain measurements)
** Current wind speed in m/s (hover to see current wind gust speed)